| time (UTC) | temp F | wind direction | speed MPH | gust MPH | rain 1hr in | rain 24hr in | rain mn in | humidity % | barometer mb |
| 20260506123044 | 53 | 31 | 0.0 | 0.0 | 0.00 | 0.00 | 0.00 | 95 | 1019.8 |
| 20260506121543 | 53 | 34 | 0.0 | 0.0 | 0.00 | 0.00 | 0.00 | 95 | 1019.6 |
| 20260506120042 | 53 | 35 | 0.0 | 0.0 | 0.00 | 0.00 | 0.00 | 95 | 1019.7 |
| 20260506114546 | 53 | 31 | 0.0 | 0.0 | 0.00 | 0.00 | 0.00 | 94 | 1019.5 |
| 20260506113040 | 53 | 34 | 0.0 | 0.0 | 0.00 | 0.00 | 0.00 | 94 | 1019.5 |
| 20260506111538 | 53 | 29 | 0.0 | 0.0 | 0.00 | 0.00 | 0.00 | 94 | 1019.4 |
| 20260506110042 | 53 | 26 | 0.0 | 0.0 | 0.00 | 0.00 | 0.00 | 94 | 1019.2 |
| 20260506104559 | 53 | 32 | 0.0 | 0.0 | 0.00 | 0.00 | 0.00 | 94 | 1019.2 |
| 20260506103039 | 53 | 34 | 0.0 | 0.0 | 0.00 | 0.00 | 0.00 | 94 | 1019.1 |
| 20260506101533 | 53 | 30 | 0.0 | 0.0 | 0.00 | 0.00 | 0.00 | 94 | 1019.0 |
| 20260506100040 | 53 | 34 | 0.0 | 1.0 | 0.00 | 0.00 | 0.00 | 94 | 1018.8 |
| 20260506094534 | 53 | 32 | 0.0 | 0.0 | 0.00 | 0.01 | 0.00 | 93 | 1018.8 |
| 20260506093032 | 53 | 34 | 0.0 | 1.0 | 0.00 | 0.01 | 0.00 | 93 | 1018.8 |
| 20260506091530 | 53 | 32 | 0.0 | 1.0 | 0.00 | 0.01 | 0.00 | 93 | 1018.9 |
| 20260506090040 | 53 | 25 | 0.0 | 1.0 | 0.00 | 0.01 | 0.00 | 92 | 1018.8 |
| 20260506084528 | 53 | 34 | 0.0 | 1.0 | 0.00 | 0.02 | 0.00 | 92 | 1018.9 |
| 20260506083037 | 53 | 34 | 0.0 | 0.0 | 0.00 | 0.02 | 0.00 | 92 | 1019.0 |
| 20260506081524 | 53 | 36 | 0.0 | 0.0 | 0.00 | 0.02 | 0.00 | 92 | 1018.8 |
| 20260506073022 | 53 | 35 | 1.0 | 2.0 | 0.00 | 0.03 | 0.00 | 91 | 1018.5 |
| 20260506071521 | 53 | 31 | 1.0 | 3.0 | 0.00 | 0.03 | 0.00 | 91 | 1018.4 |
| 20260506061511 | 53 | 34 | 0.0 | 1.0 | 0.00 | 0.06 | 0.03 | 90 | 1018.0 |
| 20260506044505 | 53 | 32 | 0.0 | 4.0 | 0.00 | 0.07 | 0.03 | 89 | 1017.3 |
| 20260506043101 | 54 | 35 | 2.0 | 7.0 | 0.00 | 0.07 | 0.03 | 88 | 1017.1 |
| 20260506041600 | 54 | 29 | 2.0 | 6.0 | 0.00 | 0.07 | 0.03 | 87 | 1016.9 |
| 20260506041501 | 54 | 27 | 2.0 | 5.0 | 0.00 | 0.07 | 0.03 | 87 | 1016.9 |
| 20260506040058 | 55 | 35 | 2.0 | 5.0 | 0.00 | 0.07 | 0.03 | 85 | 1016.7 |
| 20260506034600 | 56 | 34 | 3.0 | 5.0 | 0.00 | 0.07 | 0.03 | 84 | 1016.6 |
| 20260506033055 | 57 | 32 | 2.0 | 5.0 | 0.00 | 0.07 | 0.03 | 82 | 1016.3 |
| 20260506031556 | 58 | 35 | 1.0 | 3.0 | 0.00 | 0.07 | 0.03 | 81 | 1016.0 |
| 20260506030051 | 59 | 32 | 0.0 | 3.0 | 0.00 | 0.07 | 0.03 | 78 | 1015.8 |
| 20260506024550 | 60 | 32 | 1.0 | 4.0 | 0.00 | 0.09 | 0.03 | 75 | 1015.7 |
| 20260506023050 | 61 | 34 | 0.0 | 2.0 | 0.00 | 0.09 | 0.03 | 74 | 1015.5 |
| 20260506021556 | 61 | 32 | 1.0 | 6.0 | 0.00 | 0.09 | 0.03 | 74 | 1015.4 |
| 20260506020047 | 60 | 31 | 1.0 | 5.0 | 0.00 | 0.09 | 0.03 | 76 | 1015.3 |
| 20260506014547 | 59 | 31 | 2.0 | 7.0 | 0.00 | 0.13 | 0.03 | 78 | 1015.2 |
| 20260506013047 | 59 | 34 | 1.0 | 7.0 | 0.00 | 0.13 | 0.03 | 78 | 1015.2 |
| 20260506011550 | 60 | 35 | 3.0 | 7.0 | 0.00 | 0.13 | 0.03 | 77 | 1015.1 |
| 20260506010051 | 60 | 31 | 2.0 | 7.0 | 0.00 | 0.13 | 0.03 | 77 | 1015.1 |
| 20260506004544 | 60 | 32 | 2.0 | 10.0 | 0.00 | 0.16 | 0.03 | 77 | 1015.2 |
| 20260506003044 | 60 | 37 | 5.0 | 11.0 | 0.00 | 0.16 | 0.03 | 75 | 1015.1 |
| 20260506001543 | 61 | 31 | 2.0 | 10.0 | 0.00 | 0.16 | 0.03 | 77 | 1015.0 |
| 20260506000042 | 61 | 35 | 3.0 | 10.0 | 0.00 | 0.16 | 0.03 | 76 | 1015.0 |
| 20260505234604 | 61 | 34 | 4.0 | 11.0 | 0.00 | 0.20 | 0.03 | 76 | 1014.9 |
| 20260505233047 | 61 | 35 | 5.0 | 11.0 | 0.00 | 0.20 | 0.03 | 75 | 1015.0 |
| 20260505231540 | 62 | 36 | 4.0 | 10.0 | 0.00 | 0.20 | 0.03 | 75 | 1014.9 |
| 20260505230042 | 63 | 34 | 4.0 | 9.0 | 0.00 | 0.20 | 0.03 | 74 | 1015.0 |
| 20260505224540 | 64 | 35 | 3.0 | 12.0 | 0.00 | 0.24 | 0.03 | 74 | 1015.0 |
| 20260505223042 | 65 | 32 | 1.0 | 4.0 | 0.00 | 0.24 | 0.03 | 75 | 1015.0 |
| 20260505221536 | 64 | 28 | 3.0 | 7.0 | 0.00 | 0.24 | 0.03 | 73 | 1015.0 |
| 20260505220035 | 64 | 31 | 3.0 | 9.0 | 0.00 | 0.24 | 0.03 | 75 | 1015.1 |
| 20260505214544 | 63 | 28 | 2.0 | 7.0 | 0.00 | 0.24 | 0.03 | 76 | 1015.2 |
| 20260505213033 | 63 | 32 | 2.0 | 5.0 | 0.00 | 0.24 | 0.03 | 76 | 1015.4 |
| 20260505211541 | 64 | 35 | 3.0 | 6.0 | 0.00 | 0.24 | 0.03 | 74 | 1015.4 |
| 20260505210032 | 64 | 30 | 2.0 | 4.0 | 0.00 | 0.24 | 0.03 | 74 | 1015.4 |
| 20260505204534 | 64 | 31 | 1.0 | 4.0 | 0.00 | 0.24 | 0.03 | 74 | 1015.5 |
| 20260505203041 | 63 | 30 | 1.0 | 4.0 | 0.00 | 0.24 | 0.03 | 74 | 1015.6 |
| 20260505201527 | 62 | 31 | 2.0 | 5.0 | 0.00 | 0.24 | 0.03 | 75 | 1015.6 |
| 20260505200027 | 62 | 28 | 1.0 | 6.0 | 0.00 | 0.24 | 0.03 | 77 | 1015.7 |
| 20260505194526 | 62 | 34 | 2.0 | 7.0 | 0.00 | 0.24 | 0.03 | 78 | 1015.7 |
| 20260505193025 | 62 | 32 | 1.0 | 5.0 | 0.00 | 0.24 | 0.03 | 77 | 1015.8 |
| 20260505191524 | 62 | 32 | 2.0 | 7.0 | 0.00 | 0.24 | 0.03 | 79 | 1015.8 |
| 20260505190025 | 61 | 32 | 4.0 | 9.0 | 0.00 | 0.24 | 0.03 | 79 | 1015.7 |
| 20260505184526 | 60 | 32 | 3.0 | 7.0 | 0.00 | 0.24 | 0.03 | 79 | 1015.7 |
| 20260505183025 | 61 | 24 | 0.0 | 3.0 | 0.00 | 0.24 | 0.03 | 75 | 1015.7 |
| 20260505181516 | 61 | 32 | 1.0 | 3.0 | 0.00 | 0.24 | 0.03 | 75 | 1015.7 |
| 20260505180012 | 60 | 31 | 0.0 | 3.0 | 0.00 | 0.24 | 0.03 | 78 | 1015.6 |
| 20260505174509 | 59 | 28 | 1.0 | 4.0 | 0.00 | 0.24 | 0.03 | 79 | 1015.5 |
| 20260505173007 | 59 | 35 | 1.0 | 4.0 | 0.00 | 0.24 | 0.03 | 78 | 1015.3 |
| 20260505171506 | 59 | 32 | 0.0 | 4.0 | 0.00 | 0.24 | 0.03 | 79 | 1015.3 |
| 20260505170007 | 58 | 26 | 2.0 | 5.0 | 0.00 | 0.24 | 0.03 | 80 | 1015.4 |
| 20260505164502 | 58 | 31 | 2.0 | 5.0 | 0.00 | 0.24 | 0.03 | 80 | 1015.4 |
| 20260505163058 | 58 | 34 | 1.0 | 5.0 | 0.00 | 0.24 | 0.03 | 82 | 1015.2 |
| 20260505161556 | 57 | 30 | 1.0 | 6.0 | 0.00 | 0.24 | 0.03 | 84 | 1015.2 |
| 20260505153053 | 56 | 32 | 3.0 | 7.0 | 0.00 | 0.24 | 0.03 | 88 | 1014.9 |
| 20260505151548 | 55 | 32 | 3.0 | 8.0 | 0.00 | 0.24 | 0.03 | 91 | 1014.9 |
| 20260505124525 | 51 | 29 | 1.0 | 3.0 | 0.00 | 0.24 | 0.03 | 96 | 1014.1 |